Theta_e
322 324 325 323 324 325 327 325 322 322 321 320 321 322 323 324 323 321 321 319 317 316 318 319 321 322 321 322 322 322 321 318 319 320 318 318 320 321 320 321 323 323 321 321 322 322 323 325 326 327 327 327 326 325 324 324 325 325 323 321 318 318 318 314 313 315 315 314 312 310 310 310 310 310 310 310 309 308 309 309 308 308 309 309 308
322 326 323 322 325 327 327 325 322 323 323 321 321 322 323 323 322 322 321 317 316 318 318 317 320 320 320 322 322 321 319 318 319 322 322 320 320 320 321 321 322 321 320 320 320 320 323 325 326 327 327 327 325 324 323 323 324 323 322 320 317 316 317 315 313 315 315 314 313 312 311 311 311 311 311 311 310 309 309 310 309 309 310 310 309
323 325 320 321 326 328 328 327 323 323 324 322 320 321 322 322 322 322 320 316 315 316 314 313 317 319 318 320 321 320 318 316 318 321 322 321 321 321 322 321 321 319 318 319 319 319 321 324 326 326 326 327 325 323 323 322 322 320 320 319 317 315 316 315 315 315 314 313 313 314 312 311 312 312 311 312 311 310 311 311 310 310 310 310 310
323 323 320 323 327 328 327 326 323 323 324 323 320 321 321 321 321 322 320 317 314 312 310 311 315 316 318 319 319 318 316 314 317 320 321 321 322 322 322 321 320 319 319 319 318 318 320 323 324 325 326 326 324 322 322 321 320 319 319 319 318 316 316 315 315 315 315 314 313 314 313 312 312 312 312 312 312 311 311 311 311 311 310 310 310
322 321 321 325 327 327 327 326 323 323 324 322 321 321 321 320 321 322 320 316 311 308 310 313 315 315 317 318 318 317 316 314 315 318 319 320 321 322 322 320 319 319 317 316 316 318 320 323 324 325 326 326 324 322 322 320 319 319 318 318 318 317 316 316 316 316 316 315 314 313 313 313 312 313 312 312 312 312 311 311 311 311 311 310 310
321 320 323 327 328 327 327 325 323 322 321 320 321 322 321 320 320 319 317 313 309 308 312 314 315 316 317 318 317 317 316 315 315 316 318 319 319 320 321 321 320 318 317 317 316 316 320 323 323 324 326 326 324 323 323 321 319 319 318 318 317 317 317 316 316 317 316 316 315 314 314 313 313 313 312 312 312 312 311 311 310 311 311 310 310
324 323 325 329 328 326 326 325 324 322 319 319 321 322 321 319 316 313 312 311 310 312 315 315 315 315 315 315 316 315 315 314 315 315 316 318 318 318 319 320 320 318 318 318 316 315 318 322 323 323 324 325 324 323 321 320 319 320 320 319 318 317 317 317 317 317 317 317 317 316 315 314 313 313 312 312 312 312 312 312 311 311 311 311 310
327 326 327 329 327 325 325 324 323 322 319 320 322 322 320 316 311 309 308 309 310 313 315 315 315 315 315 315 315 315 315 315 315 315 316 316 316 317 316 317 319 319 319 318 316 315 316 319 322 323 323 324 324 321 320 319 318 319 320 319 318 318 318 318 318 318 318 318 318 317 316 315 314 314 313 312 312 312 312 313 313 313 312 311 311
327 326 327 328 327 326 325 323 322 322 321 322 322 321 318 314 309 309 309 310 311 313 315 315 316 316 315 315 314 314 315 314 313 314 315 316 316 316 315 315 316 318 319 318 317 315 315 316 318 320 321 321 321 320 318 317 317 318 318 317 316 317 317 318 318 318 318 317 317 317 317 316 315 315 314 313 312 313 313 313 313 313 313 312 312
326 327 326 327 326 325 324 322 322 322 322 322 322 320 317 313 310 310 311 311 312 314 316 317 318 317 316 315 313 313 314 313 311 311 312 314 316 316 316 315 315 316 318 318 317 315 315 315 315 316 317 317 317 317 316 315 314 316 316 315 315 316 318 318 318 318 317 317 317 317 317 316 316 316 315 314 313 312 313 313 313 314 314 313 312
324 324 324 324 324 324 323 322 322 322 322 322 321 319 315 311 311 312 312 313 313 313 314 316 317 317 315 314 314 314 314 313 313 313 311 311 312 314 316 316 315 316 317 318 317 316 316 316 315 315 315 315 315 314 314 314 314 314 314 314 315 316 317 317 318 318 317 317 316 316 316 316 316 315 315 315 314 313 313 313 314 314 314 314 313
323 323 324 323 322 322 322 322 322 322 322 321 320 318 314 312 313 314 314 315 315 314 314 314 315 314 314 314 314 314 314 314 314 314 313 312 310 312 315 316 315 317 318 318 318 318 317 317 316 314 314 314 314 313 314 313 313 313 313 314 314 315 315 315 316 317 318 316 316 316 316 315 315 315 315 315 315 315 314 314 314 314 314 314 314
323 323 323 322 321 321 322 321 321 321 320 320 319 318 316 315 315 316 316 316 316 315 314 315 315 314 314 314 314 314 314 315 314 314 315 314 312 312 315 315 315 316 317 317 317 317 317 318 317 315 314 313 313 314 315 314 313 313 313 314 314 314 313 313 314 314 316 316 316 316 316 315 315 315 315 316 315 315 315 315 315 314 314 314 314
322 322 321 321 320 320 320 320 320 319 319 318 318 317 317 317 317 317 317 317 317 316 316 316 317 316 315 314 314 314 314 315 315 315 315 315 315 314 315 314 314 315 315 314 314 314 314 315 316 316 315 315 314 315 316 317 316 314 314 314 314 313 313 312 312 312 312 312 314 315 315 316 316 316 316 316 315 314 315 315 315 315 315 314 314
320 320 320 320 319 320 320 320 320 319 318 318 318 318 318 318 318 318 318 318 318 318 318 318 318 318 317 316 316 316 316 317 316 316 316 316 316 316 316 315 315 315 315 314 314 314 313 313 314 315 316 315 315 314 314 315 315 314 314 314 314 314 314 313 312 312 312 311 312 312 314 315 316 316 315 316 314 313 314 315 315 315 315 314 314
319 319 318 319 319 319 320 319 319 318 319 319 319 319 319 318 318 318 318 318 318 318 318 319 319 319 318 318 318 318 318 318 317 317 317 317 317 317 317 317 317 317 316 315 315 315 315 314 314 315 315 316 315 314 314 314 314 314 314 314 315 316 315 313 312 312 313 313 313 314 314 315 315 315 316 316 315 315 315 315 315 315 315 314 314
317 316 316 316 316 317 318 318 318 318 318 318 318 319 318 318 318 318 318 318 318 317 317 318 318 318 318 318 318 319 318 318 318 318 318 318 319 319 319 319 319 319 318 318 317 317 316 316 316 316 316 317 316 315 315 315 315 314 314 315 315 316 316 315 313 313 314 315 315 315 316 316 316 316 316 316 316 316 316 315 316 316 315 315 314
311 312 312 313 313 313 314 315 315 316 317 317 317 317 317 316 316 316 317 317 317 317 317 317 317 317 317 317 318 318 318 318 319 319 319 319 319 319 319 318 319 319 319 319 319 319 318 318 318 318 318 318 317 317 317 317 317 316 316 316 316 317 318 317 316 315 315 316 316 316 316 316 316 316 316 316 317 316 316 316 316 315 315 315 314
304 306 307 308 308 309 310 310 310 311 312 313 313 313 313 313 312 313 314 314 315 315 316 316 316 316 316 316 317 317 317 317 317 317 317 316 316 316 316 316 316 316 316 316 317 317 317 317 317 317 318 318 317 317 317 317 317 317 318 318 318 319 319 319 319 318 317 316 317 317 317 317 316 316 316 316 317 317 316 316 316 315 315 315 314
304 303 303 304 304 305 305 306 306 307 307 307 307 307 308 308 307 307 308 308 308 309 310 309 309 310 310 310 310 311 311 311 311 311 311 310 310 310 310 311 311 311 312 312 312 312 313 313 313 314 314 315 315 315 315 315 315 316 316 317 318 318 318 319 320 319 317 316 316 316 317 317 316 316 316 316 316 316 315 315 315 315 316 315 314
306 306 306 306 306 306 305 305 305 305 305 304 305 305 305 305 304 304 304 304 303 303 303 303 303 303 303 304 304 304 304 304 304 304 304 304 304 304 304 304 305 305 305 306 306 306 306 307 308 308 309 310 310 311 311 312 312 313 313 314 314 315 316 317 318 318 317 316 316 315 316 316 315 315 315 315 315 314 314 314 315 315 315 314 314
303 304 304 305 306 307 307 307 307 306 305 303 302 302 302 303 303 302 302 302 301 301 300 300 300 300 300 301 300 300 300 300 300 300 300 300 300 300 300 301 301 300 301 301 301 301 301 302 303 303 303 304 304 305 306 307 308 309 309 311 312 313 314 315 316 316 316 316 316 316 316 316 315 315 314 314 313 313 312 311 311 313 314 314 313
299 299 300 300 301 302 302 303 303 304 303 302 301 300 300 300 300 300 300 300 300 300 299 299 299 299 299 299 299 299 299 299 299 299 299 299 299 299 299 299 299 299 299 299 299 299 299 299 299 300 300 300 300 300 301 301 302 303 303 305 307 309 311 313 314 315 316 316 316 316 316 316 315 314 313 313 312 311 310 309 309 311 312 313 313
298 298 298 297 298 298 298 298 299 299 299 299 299 299 298 299 299 299 298 299 299 299 298 299 299 298 299 298 298 298 298 298 298 298 298 299 299 298 299 299 299 299 298 298 299 299 298 299 299 299 299 299 299 299 299 299 299 299 300 300 301 302 304 307 310 312 314 315 316 315 315 315 314 313 313 312 311 310 309 308 309 309 310 311 312
297 297 297 297 298 297 297 297 298 298 298 298 298 298 298 298 298 298 298 298 298 298 298 298 298 298 298 298 298 297 297 297 297 298 298 297 298 298 298 298 297 298 297 297 298 297 298 298 298 298 298 298 298 298 298 298 299 299 299 299 299 299 300 301 302 305 309 313 315 314 313 314 313 313 312 312 311 309 309 309 309 309 309 310 311
297 297 297 297 297 297 297 297 297 297 297 298 298 298 298 298 298 298 298 298 298 298 298 298 297 297 297 297 297 297 297 297 298 298 298 297 297 297 297 297 297 297 297 297 297 297 297 297 297 297 297 297 297 298 298 298 298 298 298 299 299 299 299 299 299 300 302 308 313 314 312 313 312 311 311 312 311 310 310 310 310 310 310 310 310
296 297 297 297 297 297 297 297 297 297 297 297 298 298 297 297 298 297 297 297 297 297 297 297 297 298 298 298 297 298 299 299 299 298 298 298 298 298 298 297 297 297 297 297 297 297 297 297 297 297 296 296 297 297 297 298 298 298 298 299 299 299 299 299 300 301 302 306 311 312 311 312 312 311 311 310 310 310 309 309 309 309 309 309 308
296 296 297 297 297 297 297 297 297 297 297 296 297 297 297 297 297 297 297 297 297 297 297 297 297 298 298 298 298 298 299 300 299 299 298 298 298 298 298 298 297 297 297 297 297 297 297 297 297 296 297 298 299 299 300 301 301 301 301 301 301 300 299 300 301 303 306 309 311 312 311 311 311 311 310 310 310 309 308 308 308 308 308 307 305
296 296 296 296 296 296 297 296 297 298 298 297 297 297 296 297 297 297 297 297 297 297 297 297 297 298 298 298 298 298 298 299 299 298 298 299 298 298 298 298 298 297 297 297 297 297 297 297 297 298 299 300 300 301 301 302 302 303 303 302 302 303 303 303 303 304 306 309 311 311 311 310 310 310 310 309 309 308 307 307 307 306 305 304 303
296 296 296 296 296 297 297 297 297 298 299 299 298 298 297 296 297 297 297 297 297 298 298 298 298 298 298 298 298 298 298 299 299 299 299 299 299 299 298 298 298 298 297 297 297 297 297 297 299 300 301 301 301 301 301 301 301 301 302 302 302 303 304 305 305 305 307 309 310 310 310 310 309 309 308 308 308 307 307 306 305 304 303 302 302
297 296 296 296 296 297 297 297 298 298 299 299 299 299 298 298 297 297 297 298 298 298 298 298 298 298 297 297 297 297 298 299 299 299 299 299 299 299 299 298 298 298 297 297 297 297 297 298 300 300 300 300 300 300 300 300 300 300 301 302 302 303 303 304 306 307 308 308 308 308 308 308 308 307 307 307 307 307 306 305 303 302 301 301 300
297 297 297 296 296 297 297 298 298 298 299 298 299 299 299 299 298 298 298 298 298 298 298 298 297 297 297 297 297 297 298 299 299 299 299 299 299 299 299 298 298 298 298 298 298 298 298 299 300 300 300 300 300 300 300 300 299 300 301 301 302 302 303 303 305 306 307 307 307 307 307 306 306 306 306 307 307 306 304 302 301 300 299 298 297
297 297 297 297 297 297 298 298 298 298 298 298 298 298 298 299 299 299 299 298 298 298 297 297 297 297 297 297 297 297 297 297 297 298 298 299 299 299 299 299 298 298 298 298 298 298 299 299 299 300 300 300 300 300 300 300 300 300 301 301 302 302 303 303 303 303 303 303 304 304 304 304 304 305 306 305 305 303 302 300 299 298 297 296 296
297 296 296 297 297 297 297 298 298 298 298 298 298 298 298 298 298 299 299 299 298 298 298 297 297 297 297 297 297 296 296 297 297 297 297 299 299 299 299 299 299 298 298 298 298 299 299 299 299 299 299 299 299 300 300 300 300 300 300 301 301 302 302 302 302 301 301 301 301 301 303 304 305 305 305 303 302 301 299 299 298 297 297 296 296
297 296 296 296 297 297 297 297 297 298 298 298 298 298 298 298 298 298 298 298 298 299 299 298 297 297 296 296 296 296 296 297 297 297 298 299 299 299 299 299 299 298 298 298 298 298 298 299 299 299 299 299 299 299 300 300 300 300 300 300 301 301 301 301 300 300 300 301 300 300 302 304 304 304 303 302 300 299 298 298 298 296 295 294 294
297 297 296 296 297 297 297 297 297 297 297 297 298 297 297 297 298 298 298 297 297 298 299 298 297 297 296 296 296 296 297 297 297 297 298 299 299 299 299 298 298 298 298 298 298 298 298 299 299 299 299 299 299 299 299 299 299 299 300 300 300 300 300 300 299 299 300 301 301 301 302 303 302 301 300 299 298 298 298 297 296 295 294 293 293
297 297 296 296 296 296 297 297 297 296 296 297 297 297 297 297 297 297 298 297 296 297 298 298 297 297 297 296 296 297 297 297 298 298 298 299 299 299 298 298 298 298 298 298 298 298 298 299 299 299 299 299 299 298 298 297 297 298 299 300 300 299 299 299 299 300 300 300 301 301 301 300 299 298 298 298 297 297 297 295 294 294 293 293 292
296 296 295 295 295 296 297 297 296 296 296 296 297 297 297 297 297 297 297 296 296 296 298 298 297 296 296 296 296 296 297 297 297 298 298 298 298 298 298 298 298 298 298 299 298 298 298 298 298 298 298 298 298 297 297 297 297 298 298 299 299 299 298 298 299 299 299 298 298 298 298 297 297 296 297 297 296 295 294 293 292 292 292 292 291
297 295 294 294 294 295 296 296 296 296 296 296 297 296 296 296 296 296 297 296 296 296 297 297 296 296 296 295 296 296 297 297 297 297 298 298 298 298 298 298 298 299 299 299 298 297 297 298 297 297 297 297 297 297 297 297 297 297 298 298 297 297 297 297 296 296 296 295 296 296 296 296 296 295 295 295 294 293 292 292 292 291 291 291 292
297 296 295 294 294 294 295 295 296 296 296 296 296 296 296 296 296 296 296 296 295 296 296 296 296 296 296 296 296 296 296 296 296 296 297 298 298 298 298 298 298 298 298 298 298 297 297 296 296 296 296 297 297 297 297 296 296 296 296 296 296 296 295 295 295 295 294 294 295 295 295 294 294 294 293 293 292 292 292 291 291 291 291 292 292
297 296 295 294 294 294 295 295 295 295 296 295 296 296 296 296 295 296 295 295 295 295 296 296 295 295 295 296 296 296 296 296 296 295 296 297 298 298 298 298 298 298 298 298 298 297 297 296 295 295 296 296 296 296 296 295 295 295 295 295 295 295 294 294 294 294 294 294 294 294 293 293 293 292 292 292 291 291 291 291 291 291 291 292 292
297 296 296 295 294 294 295 295 295 295 295 295 295 295 295 295 295 295 295 295 295 295 295 295 295 295 295 296 296 296 295 295 296 296 296 297 297 298 298 298 298 298 298 297 297 297 297 296 295 295 296 296 295 295 295 295 294 294 294 294 294 294 294 294 293 293 293 293 293 292 292 292 291 291 291 291 291 291 291 291 291 291 291 292 292
297 296 296 295 294 294 294 295 295 295 294 294 294 294 294 295 295 295 295 294 294 295 295 295 295 294 294 295 295 295 295 295 296 297 296 296 296 297 297 297 298 298 298 297 297 297 297 296 296 296 295 295 295 295 295 295 294 294 293 293 293 293 293 293 292 292 292 292 292 292 291 291 291 290 290 291 291 291 291 291 291 291 291 291 291
297 296 295 295 295 294 294 294 294 294 293 293 293 293 294 294 294 294 294 294 294 294 294 294 294 294 294 294 294 294 294 294 296 296 296 296 296 296 297 297 297 298 298 297 297 297 297 296 296 296 296 295 295 295 295 295 294 293 292 292 292 292 292 292 292 292 291 291 291 290 290 290 290 290 290 291 291 291 291 291 291 291 291 291 291
297 296 295 295 295 295 294 294 294 293 293 293 293 293 294 294 294 294 294 294 294 294 294 294 294 294 294 293 293 293 293 293 294 295 295 296 296 296 297 297 297 297 297 297 297 297 296 296 296 296 296 295 295 295 294 294 293 293 292 292 292 291 291 291 291 291 290 290 290 289 289 290 290 290 291 291 291 291 291 291 291 291 291 291 291
297 296 295 295 295 294 294 294 294 294 293 293 293 294 294 294 294 294 294 294 294 294 294 293 293 293 293 293 293 293 293 293 293 294 294 295 296 296 296 297 297 296 296 296 296 296 296 296 296 295 295 295 294 294 293 293 292 292 292 292 292 291 291 291 291 290 290 289 289 289 289 290 290 290 291 291 291 291 291 291 291 291 291 291 291
296 296 295 295 294 294 294 293 293 293 293 293 293 293 294 294 294 294 293 293 294 294 293 293 293 293 293 293 293 293 293 293 293 293 293 294 295 295 295 296 296 296 295 295 295 296 295 295 295 294 294 293 293 293 293 292 292 292 292 292 291 291 291 290 290 290 289 288 289 289 290 290 290 290 290 291 291 291 290 290 290 290 290 291 291
296 296 295 295 294 294 294 294 293 293 293 293 293 293 293 294 294 294 293 294 294 294 293 293 293 293 293 292 292 292 292 292 292 293 293 293 294 294 294 295 295 295 295 295 295 295 295 294 294 294 293 293 292 292 292 292 292 292 291 291 291 290 290 289 289 288 288 288 289 290 290 290 290 290 290 290 291 291 290 290 290 290 290 290 290
296 296 295 295 294 294 294 294 294 294 294 293 293 293 293 294 294 294 294 294 294 294 294 294 293 293 293 292 292 292 292 292 292 292 293 293 293 294 294 294 294 294 294 294 294 294 294 294 294 293 293 292 292 291 291 291 290 290 290 289 289 289 288 288 287 287 288 288 289 290 290 290 290 290 290 290 290 290 290 290 290 290 290 290 290
296 296 295 295 295 294 294 294 294 294 294 294 294 294 294 293 294 293 294 294 294 294 293 293 293 293 293 292 292 292 292 292 292 292 292 292 293 293 293 293 293 293 294 294 294 293 293 293 292 292 291 290 290 289 289 288 288 288 288 287 287 287 287 287 287 287 288 289 289 290 290 290 290 290 290 290 290 290 290 290 290 290 290 290 290
295 295 295 295 295 294 294 294 294 294 294 294 294 293 293 293 293 293 293 294 294 294 293 293 293 293 293 292 292 292 292 291 291 291 291 292 292 292 292 292 292 292 293 293 293 292 291 291 290 290 289 289 289 288 287 287 287 287 287 286 286 286 287 287 287 287 287 288 289 290 289 290 290 290 290 290 290 290 290 290 290 290 290 290 290
Wind_Speed
30 29 28 26 26 25 24 23 23 23 22 21 20 20 19 17 16 14 13 12 10 10 11 11 11 10 10 10 9 8 7 7 8 8 9 10 9 8 8 7 7 6 7 7 6 7 6 8 10 10 11 10 10 13 15 15 12 10 11 9 6 7 8 8 12 14 12 11 11 11 12 12 11 11 11 10 9 8 9 9 8 6 6 6 5
31 29 27 27 26 25 25 23 22 22 20 19 19 19 18 16 15 14 13 11 10 11 11 12 11 10 10 10 10 9 7 7 8 8 8 9 10 9 8 8 8 7 8 7 6 6 6 7 9 10 11 12 12 14 16 14 12 11 12 10 8 9 9 9 12 14 13 12 12 11 12 11 11 12 12 11 10 8 9 10 9 6 7 7 7
32 31 29 28 26 24 24 22 21 22 20 18 19 19 16 15 14 14 13 11 11 11 11 11 11 10 10 11 11 9 7 7 8 8 8 8 9 10 10 9 10 9 8 7 6 6 7 7 9 11 13 13 15 16 15 14 13 12 12 11 9 10 9 9 10 12 12 12 11 11 11 11 11 12 12 12 11 9 10 11 9 8 9 9 9
32 32 29 28 26 24 23 22 22 23 20 18 19 18 16 15 15 14 13 12 11 11 11 11 11 11 11 11 10 9 7 7 8 8 8 8 8 9 10 10 10 9 9 8 6 6 7 8 9 11 13 13 15 16 16 14 13 12 12 11 10 10 10 9 9 9 10 11 11 10 11 10 10 11 12 13 12 12 12 12 11 11 11 10 11
31 31 29 28 27 26 25 25 26 26 22 19 19 18 16 16 16 15 13 13 12 12 11 11 10 11 11 10 9 8 7 7 8 9 9 9 9 9 9 9 9 9 9 9 8 6 7 8 10 12 13 13 15 16 15 15 14 12 12 12 10 11 11 10 9 8 8 9 10 10 10 10 10 11 12 13 13 13 12 12 12 12 12 12 14
30 31 31 30 29 29 29 27 27 26 23 22 22 19 17 17 17 15 14 13 13 12 11 11 10 10 10 10 9 8 7 7 7 8 9 9 9 9 10 10 10 9 9 8 8 8 7 8 12 14 14 13 15 15 15 14 13 12 11 11 10 11 11 11 10 9 8 9 9 10 11 11 11 12 12 13 13 13 13 13 13 13 14 15 17
27 29 30 29 28 29 27 26 26 25 24 24 23 20 18 18 17 16 15 15 14 13 12 11 11 10 10 9 8 8 7 7 6 7 7 8 8 8 10 10 10 10 9 8 8 9 8 9 12 14 14 13 13 14 15 15 14 13 12 11 10 11 11 11 11 10 10 10 10 11 12 12 13 13 12 13 13 13 13 13 14 14 16 18 19
24 26 27 25 25 24 22 23 25 24 24 26 24 22 21 19 17 16 16 16 16 16 14 13 12 11 10 10 9 8 7 6 6 6 6 6 7 7 8 8 8 9 9 8 9 10 9 9 11 13 15 14 14 14 15 15 15 14 12 11 11 11 10 10 11 11 12 11 11 11 11 12 13 13 12 13 14 15 15 15 15 15 17 19 21
23 25 24 21 22 23 23 24 25 25 26 27 26 24 23 20 19 19 18 18 17 16 14 12 11 11 11 11 11 11 10 9 9 9 8 7 6 5 6 7 7 8 8 8 9 9 9 9 11 12 13 14 14 14 13 13 13 12 10 10 10 10 10 10 10 10 11 12 12 12 12 12 13 13 14 15 16 15 15 16 16 16 17 18 20
21 21 20 19 19 20 24 26 26 25 27 28 27 26 23 21 21 20 19 18 17 16 13 11 10 9 10 11 12 11 10 9 9 9 9 8 7 5 5 6 7 7 7 7 8 8 9 10 11 12 12 13 13 13 12 11 11 11 10 10 10 10 9 9 9 9 10 10 11 11 12 13 13 14 16 17 17 16 15 17 18 16 16 17 19
21 18 16 17 18 18 20 23 23 24 27 29 28 25 23 22 22 21 20 18 17 15 14 12 11 11 11 11 10 9 9 8 8 7 7 7 7 6 5 6 7 8 7 6 6 7 8 9 11 12 12 12 13 13 13 12 12 12 12 12 12 12 10 9 8 8 9 9 10 10 12 13 13 14 16 16 16 16 16 17 19 18 17 18 19
22 20 18 19 20 20 20 23 25 26 29 29 27 24 23 23 21 19 17 16 14 13 14 14 13 13 12 10 9 9 8 8 7 7 6 6 6 6 5 5 6 7 7 6 6 6 7 7 9 12 13 13 14 14 14 14 14 13 13 13 14 14 12 11 9 9 9 9 10 11 12 13 13 13 15 15 15 16 17 18 20 19 19 21 20
19 20 19 18 19 19 20 22 24 24 24 23 21 18 16 15 13 11 12 13 13 14 16 15 13 12 12 10 9 9 8 8 7 7 6 6 6 6 5 5 5 6 6 7 7 7 7 7 8 10 13 14 14 13 12 13 14 14 14 14 15 14 14 13 12 12 12 12 12 13 13 14 14 14 14 15 15 16 17 18 21 21 21 24 22
18 19 19 19 18 17 17 19 19 18 17 15 13 11 11 12 12 12 11 12 13 15 15 14 12 11 11 10 9 8 8 7 7 6 6 5 5 5 5 5 6 6 6 7 8 8 8 8 7 8 10 12 12 12 11 11 12 14 14 15 15 15 15 15 15 15 16 16 16 16 15 14 15 15 14 16 18 19 18 18 19 19 20 24 25
19 19 19 18 17 15 13 14 15 16 16 15 13 12 12 13 15 15 15 15 14 14 13 12 11 11 10 10 9 8 7 7 6 6 6 5 5 5 6 6 7 7 7 8 8 8 9 9 8 8 9 10 11 12 12 12 13 14 14 15 15 15 16 18 19 18 18 19 18 18 17 16 17 16 16 17 20 20 20 20 20 20 21 25 27
17 18 17 17 17 15 13 12 13 14 14 14 13 12 14 15 16 15 14 13 12 12 11 10 10 10 10 9 9 8 8 7 7 7 7 6 6 7 7 7 8 9 9 9 9 10 10 11 11 11 11 12 14 14 14 15 15 16 17 17 17 17 18 21 22 21 20 20 20 20 20 20 20 20 19 19 19 21 22 22 23 24 25 27 26
17 18 19 19 18 16 14 14 14 14 13 13 12 12 13 14 14 13 12 11 11 11 12 11 10 10 10 10 10 9 8 8 8 8 8 8 8 9 8 9 10 11 12 12 12 13 14 14 14 14 14 16 18 17 17 18 18 19 20 20 21 21 21 23 25 23 22 23 23 23 24 24 24 24 24 23 22 23 23 24 25 25 26 27 25
20 21 21 20 19 19 17 16 16 15 14 14 14 13 12 12 12 11 9 8 7 8 8 8 8 8 8 8 8 7 7 7 8 8 8 8 9 9 9 9 11 12 12 13 13 14 15 16 16 16 18 20 20 20 20 21 21 22 23 24 24 24 23 25 27 27 26 27 28 28 28 28 29 29 28 28 27 27 27 27 25 23 25 26 24
22 21 21 19 19 19 18 17 17 16 15 15 14 14 13 12 11 10 9 8 6 5 5 4 4 4 4 4 5 5 6 7 7 8 8 9 9 10 10 10 12 12 12 13 13 13 15 16 17 17 18 20 21 21 21 22 22 23 23 24 25 26 25 24 26 28 29 29 30 31 31 31 31 31 30 30 30 29 31 30 25 23 24 24 22
19 20 20 19 17 17 16 16 15 14 13 13 12 12 11 10 9 8 8 7 6 5 5 4 4 4 5 5 6 7 8 9 9 10 11 12 12 13 14 14 16 16 16 16 17 17 17 18 19 21 21 21 22 23 23 23 23 23 23 24 24 25 25 23 23 26 28 28 28 30 31 30 31 31 30 30 29 29 31 31 28 27 26 23 22
14 14 15 14 14 14 12 12 11 10 9 9 9 8 7 6 5 5 4 4 4 3 3 4 4 5 6 7 8 9 10 11 12 12 13 14 15 16 17 18 18 19 20 20 20 21 20 19 22 26 26 24 26 27 27 27 27 27 27 27 26 26 26 25 25 26 27 28 29 30 31 31 31 31 31 31 30 29 29 30 29 30 28 23 20
12 11 11 10 9 9 8 8 7 6 6 5 4 4 4 3 2 2 1 1 2 2 3 4 5 6 7 8 9 10 11 12 13 13 14 15 16 17 18 19 19 19 21 21 21 23 23 23 26 29 29 27 28 30 30 31 32 32 32 31 30 30 30 30 30 28 27 28 28 28 29 29 30 31 31 30 30 29 29 29 29 29 28 25 22
12 11 11 10 9 8 7 6 4 3 3 3 2 2 2 2 1 1 2 2 3 3 4 5 5 6 7 8 9 10 11 12 13 14 15 16 16 17 18 19 19 20 21 22 22 23 24 26 29 29 28 28 29 30 30 32 33 34 34 33 33 32 32 33 34 33 31 28 26 25 24 23 25 31 33 31 30 29 29 29 28 28 27 26 25
10 10 9 9 9 8 7 6 4 3 3 2 1 1 0 0 0 0 1 1 2 3 4 5 5 6 7 8 8 9 11 12 14 14 15 16 17 17 18 20 20 20 21 21 22 23 25 27 28 28 27 28 28 28 29 29 30 31 32 33 33 33 34 35 35 35 35 33 30 28 25 22 24 30 32 31 30 30 29 29 28 27 26 24 24
9 8 7 7 6 6 5 5 4 3 3 2 2 2 2 2 2 2 2 2 2 3 4 5 5 5 6 6 7 8 9 11 13 14 15 16 17 17 18 20 21 22 22 22 23 25 26 28 28 28 28 29 29 29 29 28 28 28 27 28 29 30 32 34 34 34 34 34 33 31 27 23 24 26 27 28 31 30 29 28 27 26 24 23 23
9 8 7 6 5 5 4 3 3 3 2 2 2 2 1 1 1 1 2 2 3 3 4 4 4 5 5 5 6 7 7 8 10 12 14 15 16 17 18 19 20 21 21 22 24 26 27 27 27 27 28 28 28 28 29 29 28 27 26 26 26 26 27 28 30 32 33 32 33 32 29 26 27 28 28 28 29 28 26 25 25 23 23 23 24
8 7 7 6 5 5 4 3 4 4 3 3 3 2 2 1 1 1 1 2 2 3 3 3 3 3 4 4 4 5 5 6 8 10 12 13 15 16 17 18 18 19 18 20 22 25 27 26 25 25 26 26 26 26 27 27 27 27 26 26 26 27 26 25 26 28 29 30 31 31 30 29 30 31 29 26 25 25 24 22 21 21 23 25 25
7 7 6 6 5 5 5 5 5 5 5 4 4 3 2 2 2 2 2 2 2 2 2 2 2 2 2 3 3 3 4 5 7 10 12 12 13 14 14 15 16 16 17 19 22 24 24 24 24 23 22 21 20 19 19 18 19 20 20 20 22 24 25 25 26 26 26 27 28 29 29 30 30 29 27 25 25 25 23 21 20 21 24 25 25
7 7 6 6 6 6 6 6 6 6 6 5 3 3 3 3 3 3 3 3 3 3 2 2 2 2 2 3 3 3 4 5 8 10 11 12 13 14 13 14 15 15 16 18 20 20 20 20 19 16 14 13 13 13 12 13 14 15 15 16 18 20 21 23 26 27 26 26 27 28 28 28 27 26 25 25 26 25 22 22 23 23 24 25 24
8 7 6 6 6 7 6 6 7 7 7 6 5 5 5 5 5 4 4 4 3 2 2 3 3 3 4 5 5 5 6 7 8 9 10 10 11 12 13 14 14 15 16 16 17 18 17 15 13 10 9 10 11 11 11 12 13 13 13 14 17 20 21 21 22 22 23 23 23 24 24 23 23 23 23 24 24 23 22 23 24 24 24 24 24
6 6 5 4 5 6 6 6 7 7 6 5 5 5 5 6 6 6 5 3 3 3 4 4 4 5 5 6 7 7 8 9 9 10 11 11 10 10 11 13 14 15 15 15 15 15 14 11 9 9 9 9 10 10 11 12 13 14 13 12 13 16 19 19 18 17 18 18 18 18 18 17 18 19 20 21 22 22 22 24 25 25 24 22 21
5 5 5 4 5 6 5 5 5 5 4 4 4 4 4 4 6 7 7 6 5 5 5 4 5 5 6 7 8 9 10 10 11 11 12 12 12 11 11 12 13 14 14 14 13 12 11 9 9 9 9 9 9 11 12 14 15 15 15 14 13 12 13 15 17 17 17 17 17 18 17 17 17 17 18 19 21 23 25 26 26 24 21 18 16
4 4 4 4 5 5 4 4 3 3 3 3 3 3 3 2 3 6 8 7 6 5 5 4 5 5 6 7 8 9 10 11 12 13 13 13 13 12 12 12 12 12 13 13 12 10 9 9 9 9 9 10 10 10 12 12 13 13 14 15 14 12 11 14 16 17 18 19 19 18 17 16 16 17 17 19 23 25 27 28 26 24 20 16 13
3 3 4 4 3 2 3 3 2 2 2 2 2 2 3 3 3 3 4 6 7 6 6 6 6 6 7 8 9 9 10 11 12 14 14 14 15 15 13 10 9 10 10 10 9 8 8 8 9 9 9 9 9 10 10 10 11 12 12 13 13 12 12 12 12 13 16 18 17 16 15 15 15 16 18 21 24 26 28 27 24 20 16 12 10
3 3 4 5 4 1 1 1 1 1 1 1 1 2 2 3 3 3 3 3 4 4 6 7 7 8 9 10 10 10 10 10 12 13 15 15 16 15 13 10 7 8 7 6 6 7 7 8 8 8 9 9 9 10 10 10 11 11 12 12 12 12 12 10 9 11 15 17 15 15 15 14 15 16 19 22 25 27 26 23 19 15 11 8 6
3 4 6 5 3 1 1 1 0 0 1 1 1 1 2 3 3 3 4 4 4 3 3 4 5 7 9 9 10 11 10 10 11 12 13 14 15 13 10 8 7 7 7 6 6 6 6 7 8 8 8 9 9 9 10 11 11 11 12 12 12 11 11 10 10 13 16 15 14 14 14 14 14 16 18 22 25 24 21 18 15 11 9 6 5
3 2 3 3 2 2 2 1 2 2 0 1 1 2 2 3 4 4 5 6 6 4 3 4 4 5 6 8 9 10 9 9 10 10 11 12 12 10 9 8 8 8 8 7 8 8 7 7 8 8 7 8 9 10 11 11 12 12 13 13 13 12 13 13 13 15 15 13 12 13 12 11 12 16 19 21 21 19 16 13 11 9 8 7 5
2 2 3 2 2 1 1 3 3 2 1 1 2 2 2 3 3 4 6 8 7 5 4 5 6 5 6 8 10 9 7 7 8 8 8 9 9 8 8 9 10 10 10 9 10 9 8 7 7 8 8 9 10 12 13 13 13 13 13 12 12 12 12 12 12 11 9 8 9 10 10 12 16 18 19 20 18 15 13 11 10 8 6 6 5
3 5 6 5 4 2 0 2 3 3 2 2 3 3 3 3 3 4 6 8 7 6 5 6 6 6 7 9 10 10 8 7 8 7 7 7 8 8 8 9 11 13 13 11 10 8 7 7 7 7 8 10 11 11 11 11 10 10 8 7 6 6 5 5 4 3 3 5 8 11 13 16 18 18 17 16 15 13 11 9 7 5 4 3 4
3 6 7 7 7 6 4 2 2 3 3 3 3 3 3 3 3 4 6 7 7 6 5 5 5 6 8 9 10 10 9 8 8 8 7 7 8 8 8 10 12 13 13 11 10 9 8 7 7 7 9 10 11 11 11 11 11 10 8 7 7 8 9 8 6 5 5 8 11 14 16 17 17 15 14 13 12 10 9 7 5 5 4 4 4
3 6 8 8 8 7 5 4 3 3 3 3 3 3 3 3 3 4 5 6 6 5 5 5 5 6 8 10 10 10 9 7 7 7 7 8 8 9 9 10 11 12 11 10 10 10 9 7 7 9 10 11 12 13 14 15 15 14 12 11 11 12 12 12 11 10 10 11 13 14 14 13 12 12 11 10 9 8 6 5 4 4 4 4 4
2 4 7 8 7 6 4 3 4 4 2 2 2 2 2 2 2 3 3 4 4 3 4 4 4 6 8 8 8 7 7 6 6 7 7 7 7 8 8 9 9 9 9 8 9 10 10 9 9 11 11 12 14 15 15 15 14 12 11 11 11 11 12 13 13 13 13 12 12 12 11 10 10 9 8 7 6 5 5 5 5 5 4 4 3
2 3 5 6 6 6 4 3 3 3 2 2 2 2 1 1 1 2 2 2 2 2 3 4 4 5 6 6 6 6 6 5 6 6 6 6 6 7 7 8 8 8 8 8 8 9 9 10 11 12 12 12 13 12 12 13 12 11 11 11 12 12 12 13 13 14 14 13 12 11 9 9 8 7 7 6 6 5 5 6 5 4 4 4 3
2 3 5 6 5 4 3 3 2 1 1 1 1 1 1 0 0 1 1 2 2 3 3 4 4 5 6 6 7 7 7 7 7 7 6 5 6 6 7 7 7 6 7 7 8 9 9 10 11 12 12 12 11 10 10 11 12 11 12 13 12 12 12 12 12 13 13 13 12 11 10 8 7 7 6 6 6 6 5 5 5 4 4 3 3
3 3 4 5 4 2 2 2 1 1 1 1 0 1 1 2 2 2 2 2 2 3 4 4 4 5 6 7 8 8 8 8 10 11 10 8 7 7 6 6 5 5 7 9 9 9 10 10 10 11 11 11 10 10 10 10 11 12 12 12 12 12 11 11 11 12 13 13 12 11 10 8 6 5 5 5 5 5 5 4 4 4 4 3 3
3 3 3 4 3 1 1 1 1 1 1 1 1 2 2 3 3 3 3 3 3 3 4 4 4 5 5 6 7 8 7 8 11 14 15 14 12 10 7 6 7 8 9 10 10 10 10 10 9 9 10 10 10 10 10 10 10 11 11 10 10 10 9 9 10 11 12 13 12 10 7 6 4 5 6 6 5 4 4 4 4 4 4 3 4
4 3 3 3 3 2 1 1 2 2 2 1 2 3 3 3 3 3 3 4 4 4 4 4 4 4 5 6 8 9 9 10 12 14 16 16 16 14 11 9 9 10 10 10 10 10 9 9 9 9 9 9 10 10 10 9 9 8 8 7 7 7 7 8 8 9 10 11 11 8 5 4 3 4 6 5 4 4 4 4 4 4 3 3 4
5 4 3 2 2 1 0 1 2 3 3 2 3 3 3 3 3 3 3 4 4 4 4 4 4 4 5 7 8 10 11 12 13 13 13 13 14 14 13 12 10 10 9 9 8 8 8 8 8 8 8 8 8 8 7 6 5 5 5 5 6 6 6 7 8 7 8 8 7 5 4 4 3 3 4 4 4 4 4 4 4 4 3 3 3
6 5 4 3 2 1 1 2 2 2 2 2 3 3 3 3 3 3 3 3 3 3 3 3 3 4 5 7 8 9 9 10 11 11 11 11 11 10 10 10 9 9 8 8 8 7 6 6 6 5 5 5 5 4 3 2 1 2 2 3 3 4 4 5 5 5 5 5 5 3 3 4 4 4 4 4 4 4 4 4 4 4 4 3 3
7 6 5 4 2 1 1 2 2 2 2 2 2 2 3 3 3 3 3 3 3 3 3 3 3 3 4 4 5 6 6 7 8 8 9 9 8 8 7 7 7 6 6 6 6 5 5 5 4 4 4 4 4 3 2 2 2 2 2 3 3 3 3 3 4 4 4 4 4 3 3 4 4 4 4 4 5 5 5 5 5 5 4 4 3
8 7 6 5 4 2 2 2 2 2 2 3 3 2 2 2 2 2 2 2 2 2 2 2 2 2 2 2 3 3 4 4 5 5 6 6 6 6 6 5 5 5 5 4 4 4 4 4 4 4 5 5 6 6 6 5 5 5 5 4 4 4 4 4 4 4 4 4 4 4 4 4 4 4 4 4 4 4 4 5 5 4 4 3 3
Wind_Direction
176 176 172 171 175 176 175 175 174 172 172 170 168 167 168 168 164 160 157 155 153 152 155 160 160 160 162 163 168 172 174 178 171 168 178 179 173 171 174 172 168 166 164 160 161 168 175 187 193 193 188 186 192 192 184 173 169 174 178 176 171 167 168 167 159 155 161 168 166 173 184 184 183 188 191 204 223 213 202 220 238 238 230 231 230
178 173 171 172 178 179 176 176 175 171 169 168 171 172 170 170 167 163 160 158 155 156 161 163 160 162 162 163 168 169 167 171 165 157 162 170 169 165 159 156 156 153 147 142 144 150 153 170 186 187 182 187 193 187 178 172 171 173 173 170 164 163 163 159 158 160 166 170 168 175 188 187 184 193 198 209 231 228 210 226 246 244 229 229 239
173 171 172 175 180 181 178 177 174 171 169 170 174 174 172 171 170 166 163 161 160 163 165 163 159 160 163 165 167 166 166 170 164 156 157 161 163 163 156 153 155 148 139 136 136 139 145 157 176 181 180 190 194 182 172 174 177 175 172 169 162 161 163 160 158 163 170 174 175 180 193 195 188 197 206 213 227 224 212 226 240 238 234 230 235
172 170 172 176 181 182 178 175 174 173 172 174 177 176 175 175 172 168 167 166 166 165 162 160 159 160 160 163 166 166 169 171 164 161 160 156 158 161 157 154 153 148 143 141 134 133 143 150 166 177 176 183 186 177 172 175 176 177 176 175 171 168 168 168 166 169 172 178 184 186 197 203 195 199 207 211 222 221 213 222 228 232 242 239 239
171 172 174 180 185 183 178 177 178 176 172 175 179 177 176 177 172 169 168 167 165 161 159 159 160 159 158 162 165 164 166 168 167 171 170 163 159 159 157 155 153 152 151 148 137 131 143 152 161 169 171 174 176 173 174 176 175 179 181 179 180 179 178 180 181 183 183 185 191 191 198 206 203 205 208 209 219 222 219 224 227 230 239 238 246
175 177 181 187 189 184 180 180 180 178 173 173 177 177 177 178 174 169 166 164 159 153 153 155 155 157 159 162 165 164 163 162 164 172 174 171 168 167 167 166 162 160 158 153 147 138 137 151 160 163 167 174 174 171 174 178 177 181 185 183 185 188 191 194 196 200 202 201 202 200 203 209 209 211 214 213 217 221 222 227 230 231 237 244 257
177 181 187 192 192 185 180 178 178 179 175 172 174 178 180 180 175 168 164 159 152 145 146 147 145 148 155 157 161 161 158 155 155 162 171 176 176 175 177 175 175 176 170 164 164 153 142 150 160 162 164 169 173 172 172 177 178 182 187 188 188 195 203 207 208 212 214 216 215 212 213 216 214 216 222 220 220 224 225 228 231 233 244 257 267
176 184 189 193 193 188 181 177 178 179 173 171 177 180 180 179 175 168 163 157 150 144 143 142 139 142 146 148 155 155 150 153 155 153 162 174 176 178 183 181 183 188 184 179 178 169 155 152 158 164 166 168 174 175 175 180 183 184 191 195 197 206 215 217 219 220 221 223 223 220 221 220 217 220 221 218 222 228 227 229 232 231 244 262 271
174 180 183 183 185 187 183 179 178 177 174 175 178 180 179 178 172 165 158 153 149 144 142 142 141 143 146 149 153 153 154 163 166 159 156 162 169 176 181 183 185 190 190 189 187 181 171 165 162 167 172 173 177 180 181 186 187 188 200 208 210 216 219 219 222 224 224 226 225 225 227 225 224 223 222 228 238 239 230 232 236 233 237 251 263
166 170 173 172 175 180 180 178 175 174 176 178 178 178 178 174 168 164 160 156 153 149 148 148 147 151 157 157 155 153 152 155 157 159 162 163 168 171 171 176 181 184 185 187 188 185 184 182 176 174 176 177 180 184 186 192 196 201 210 215 215 217 215 214 218 218 221 225 225 226 228 229 231 229 229 242 254 248 235 234 239 239 235 236 247
149 147 153 161 163 162 164 167 169 172 176 178 178 176 173 169 165 163 160 159 158 157 159 163 165 168 171 169 164 161 159 155 151 156 161 164 169 170 167 169 170 173 177 178 183 187 188 193 194 191 190 191 194 197 201 208 215 221 225 222 218 218 218 218 219 218 221 225 225 227 229 233 237 235 236 245 250 248 245 241 241 243 239 235 238
153 149 156 166 166 164 164 168 173 177 175 174 173 169 166 165 166 168 171 177 183 182 179 178 181 183 183 180 176 171 170 168 163 160 157 161 167 164 166 174 168 168 173 170 172 181 183 192 202 204 206 210 213 217 220 224 228 229 231 228 224 225 226 227 227 226 230 235 236 236 236 239 244 242 242 244 244 249 255 251 249 249 245 245 246
158 158 162 164 161 165 170 167 167 168 166 163 163 164 171 178 189 206 212 207 200 192 188 187 189 191 192 193 189 184 181 177 174 171 165 166 167 164 171 183 179 180 187 185 187 189 188 196 206 212 216 218 220 224 228 232 234 232 233 233 233 235 237 239 240 236 236 240 244 245 245 247 250 249 249 249 245 249 255 254 256 256 252 256 258
145 146 146 146 146 154 164 164 164 166 170 176 184 198 219 221 215 212 202 189 181 180 186 191 192 192 197 200 200 197 197 193 192 190 183 179 182 184 189 196 198 203 208 208 210 210 208 210 214 223 228 226 227 229 230 236 239 238 238 239 240 242 242 244 245 244 244 245 246 248 249 250 253 252 251 253 252 254 257 254 255 256 256 261 264
131 131 134 140 144 152 163 173 180 181 185 194 200 205 210 201 187 178 173 173 177 179 181 184 187 190 195 200 204 206 208 210 210 211 209 206 205 208 212 217 221 226 229 229 232 233 232 232 234 239 243 244 244 241 240 243 246 246 247 246 246 248 247 246 246 246 247 248 247 249 249 247 252 253 251 255 258 258 259 257 258 260 261 263 265
121 122 128 134 140 146 153 158 163 165 169 176 180 182 183 179 174 173 174 175 179 182 182 184 187 193 196 201 210 215 218 221 222 223 225 225 226 231 234 234 236 239 242 244 246 247 248 248 249 251 254 256 255 253 253 254 255 257 258 257 255 255 254 253 251 248 249 249 247 247 249 249 252 254 252 255 258 258 260 262 263 264 264 264 264
119 120 124 127 129 133 138 141 142 145 151 158 162 171 179 178 175 178 181 182 187 191 193 192 193 198 203 204 208 215 222 229 233 237 239 239 240 243 243 243 246 247 248 250 250 252 252 251 252 254 256 256 256 256 258 259 260 262 262 263 263 261 260 259 256 252 251 254 254 253 254 254 254 254 253 253 254 257 260 262 263 263 264 265 262
118 120 122 123 124 126 130 134 136 140 146 151 152 156 165 165 162 162 163 168 182 188 189 189 191 200 208 205 207 219 227 234 241 247 250 251 252 252 250 252 256 257 256 256 255 255 255 254 252 252 254 256 257 259 259 259 260 261 262 263 264 262 261 262 262 261 258 258 259 258 258 258 257 256 256 255 255 255 255 257 260 260 259 263 261
112 114 115 116 119 123 126 128 130 133 137 140 140 141 144 142 140 142 142 148 162 172 175 182 188 204 222 226 234 242 245 249 254 256 258 260 261 262 260 260 262 262 262 263 263 263 264 264 261 256 256 260 262 262 261 260 260 260 261 262 263 262 262 263 263 265 264 263 262 262 261 261 261 260 260 259 257 255 255 255 253 251 254 259 258
106 108 110 112 114 117 120 123 125 127 129 131 132 134 136 136 140 147 152 160 171 179 188 199 209 227 245 255 262 265 266 266 266 265 267 268 267 267 266 264 266 266 265 266 266 266 267 268 267 263 261 263 265 265 265 264 263 261 260 260 261 263 264 262 260 263 266 267 267 266 265 264 264 264 263 263 262 259 259 257 252 250 254 255 253
101 103 105 109 113 115 118 121 122 124 125 127 131 135 140 145 150 154 161 173 186 197 213 232 247 255 260 263 266 267 268 269 268 267 267 267 266 266 264 264 266 266 266 265 264 262 260 258 260 263 264 262 263 264 265 264 263 262 260 259 259 259 258 256 256 260 264 266 267 267 266 265 264 264 263 264 264 261 260 261 258 256 256 253 250
91 91 94 99 104 109 114 119 124 127 124 124 129 134 143 159 168 174 192 222 247 259 264 268 271 275 277 277 277 276 274 274 275 274 272 271 270 269 268 269 268 266 266 265 262 261 260 256 257 263 265 262 260 260 260 261 261 261 260 259 258 258 258 256 256 257 259 263 263 261 260 260 261 262 262 261 262 261 261 262 260 259 257 251 244
79 81 87 91 94 98 102 105 112 122 127 137 147 146 162 187 205 230 252 267 274 279 282 283 284 285 287 287 287 287 286 283 282 282 281 280 278 276 275 275 273 271 270 269 267 266 264 262 263 266 267 265 263 261 259 259 259 260 260 259 257 256 257 257 256 255 255 255 254 253 252 250 251 256 258 259 259 260 261 260 257 256 256 252 247
77 77 79 81 84 89 92 92 95 97 97 96 86 74 80 66 37 297 286 289 287 287 286 286 288 287 288 291 293 294 294 292 290 288 287 286 285 283 282 281 279 277 276 274 273 271 269 270 272 274 274 272 271 269 267 264 262 261 261 260 259 257 256 256 256 256 254 250 250 252 250 246 248 254 256 257 257 257 258 257 253 251 252 252 251
87 87 84 83 82 83 82 79 76 72 65 54 40 28 17 19 18 8 3 347 325 317 307 301 299 296 294 300 304 304 303 301 298 296 292 289 287 285 284 283 283 282 281 280 278 276 275 277 280 282 281 281 280 280 278 276 273 271 268 265 261 258 257 257 256 257 257 253 251 252 252 251 252 250 248 251 255 256 255 252 248 248 251 252 252
76 78 78 80 81 81 80 77 73 66 60 56 47 38 40 40 11 344 342 323 311 312 309 308 314 313 313 320 318 312 313 312 308 304 299 295 292 289 286 284 282 281 281 281 279 277 277 279 280 280 279 280 280 280 279 279 278 278 277 274 268 262 259 258 256 256 257 256 254 255 255 254 248 241 241 248 254 254 252 249 248 249 252 254 253
69 69 71 73 71 67 62 59 61 57 52 58 56 48 54 63 22 342 332 320 322 326 323 329 339 336 336 345 341 338 342 335 318 307 303 300 297 295 294 292 290 288 286 284 282 282 284 285 285 282 280 280 279 279 279 279 279 279 278 276 273 270 266 262 259 257 256 256 256 256 256 255 251 248 250 254 253 251 251 251 250 251 252 251 248
77 77 78 78 78 77 69 64 66 64 59 65 69 59 52 53 36 17 6 354 357 4 357 359 359 355 2 5 358 6 10 344 317 309 308 304 301 300 300 298 296 294 291 288 289 291 294 296 296 296 295 293 290 287 285 282 282 281 277 273 273 273 270 265 261 257 255 255 257 255 256 260 261 259 258 257 254 253 253 251 249 248 246 242 238
68 71 72 72 74 74 68 67 74 72 63 56 53 48 49 43 27 18 14 10 3 355 4 31 32 11 27 37 29 27 16 345 324 318 315 310 306 306 305 303 300 297 295 295 297 300 303 306 309 310 306 301 297 294 288 281 277 276 275 273 271 271 269 266 264 261 256 256 260 260 261 264 265 262 259 256 254 255 254 249 245 241 236 232 230
56 55 57 67 73 69 65 66 67 65 62 52 32 21 25 27 21 13 5 3 9 15 33 59 62 50 54 59 51 35 17 359 344 337 331 323 314 308 305 304 304 303 303 304 307 309 314 319 319 315 305 298 296 291 284 280 278 275 275 274 273 271 271 270 269 266 261 259 262 264 264 264 263 262 259 255 252 252 249 242 236 232 227 223 222
52 45 41 51 64 58 51 53 54 51 51 51 38 20 11 13 19 25 27 27 38 56 68 77 77 68 58 52 41 26 17 11 5 0 355 348 337 321 308 303 301 301 303 307 311 316 322 324 315 306 303 300 295 290 288 289 288 285 282 278 275 277 277 272 265 261 259 257 259 261 262 262 261 260 257 254 252 249 241 232 225 221 218 214 212
57 52 41 45 60 60 52 49 54 54 50 48 50 42 25 6 2 14 33 58 75 76 70 62 58 54 46 35 24 17 15 12 10 9 5 358 351 338 321 310 305 302 302 304 308 313 317 315 309 307 307 305 301 298 297 297 294 291 289 285 280 279 279 273 263 258 257 257 260 261 260 259 258 256 255 252 246 237 227 219 213 207 201 198 199
56 52 44 40 46 56 61 54 51 62 65 54 53 54 51 41 358 355 7 25 42 54 59 50 38 29 21 15 9 5 3 3 4 4 3 3 0 351 333 315 304 299 298 302 305 308 308 308 308 308 306 305 303 300 298 297 294 290 287 286 282 279 278 276 270 264 261 261 261 262 261 258 255 253 251 246 237 227 216 207 201 195 191 193 202
65 76 93 98 80 48 58 68 61 66 75 69 68 59 45 51 57 34 12 7 7 6 6 6 8 8 1 356 353 350 350 354 356 357 359 1 1 359 352 337 316 304 301 303 309 311 310 310 309 308 308 307 304 302 302 300 296 289 285 284 283 278 273 272 273 272 270 268 264 258 257 259 257 251 246 237 226 216 207 200 195 191 192 201 213
44 26 52 82 89 49 33 64 64 65 82 69 52 44 31 30 37 43 39 30 20 7 351 343 348 355 353 348 347 348 348 351 355 357 358 358 359 3 7 5 352 336 327 322 320 317 315 316 316 315 315 313 309 309 309 304 299 296 291 286 283 277 270 266 269 271 270 269 265 259 258 261 259 250 239 227 214 204 197 194 190 187 189 199 204
38 9 8 24 37 13 353 27 5 275 155 125 30 359 10 17 18 19 15 11 24 42 11 337 342 352 351 353 357 357 355 358 359 360 358 356 360 9 17 16 10 3 357 351 344 334 327 326 325 321 320 320 318 316 312 304 299 293 285 276 273 272 268 265 270 275 273 268 262 259 260 260 253 240 226 214 203 194 189 188 187 188 194 199 193
50 30 2 357 349 331 327 304 267 247 217 39 337 320 337 350 357 5 360 353 6 34 24 345 350 359 356 1 7 5 3 4 2 360 358 357 2 14 21 17 14 12 6 2 360 358 352 342 336 332 328 326 324 319 313 307 302 295 282 268 258 259 263 267 273 278 278 271 260 255 253 244 227 215 204 193 185 179 179 184 185 190 204 210 201
23 11 14 35 51 8 306 292 284 284 317 329 305 305 323 329 335 348 348 346 359 25 22 354 356 5 3 4 6 5 5 8 6 1 359 0 6 15 18 16 16 15 9 4 1 0 358 349 340 336 333 330 329 325 320 315 310 302 291 276 266 266 273 279 279 275 271 261 244 233 218 198 188 185 180 174 168 164 168 176 179 186 204 212 198
328 337 356 19 31 28 272 260 281 298 302 285 279 290 307 307 314 334 342 345 357 16 18 4 3 6 4 2 2 1 4 9 10 7 5 7 14 19 19 19 20 17 13 10 6 3 358 349 343 345 350 352 352 348 342 338 332 323 314 307 306 311 318 318 307 276 236 218 203 188 175 168 165 164 161 160 160 159 161 167 174 178 187 192 177
312 328 345 2 6 3 2 356 319 298 287 280 277 282 288 293 307 327 337 346 358 9 11 8 6 1 356 356 359 3 7 8 6 7 12 19 25 28 28 28 26 21 18 21 25 24 15 2 3 18 25 24 24 24 25 29 33 35 39 48 54 58 59 59 64 89 135 157 159 155 151 149 150 152 153 154 154 154 156 161 168 165 151 142 151
319 331 341 352 1 5 5 354 325 301 284 276 274 270 274 291 312 327 338 348 358 5 5 8 6 354 350 353 358 4 11 13 9 11 20 27 31 36 38 35 31 26 25 32 41 39 31 30 43 52 49 46 46 49 53 58 62 65 68 73 79 84 85 86 91 103 119 129 132 132 135 138 140 142 145 144 143 145 145 141 139 138 132 134 151
315 327 336 344 349 352 352 337 319 309 293 267 262 255 252 281 307 327 343 353 3 10 9 11 9 355 348 351 356 2 12 20 21 22 26 27 30 37 42 40 35 29 27 34 43 42 41 50 63 65 61 61 63 65 70 75 76 76 80 87 94 100 103 106 109 113 116 117 117 116 115 114 112 113 115 115 113 117 118 116 120 127 129 134 148
287 309 328 336 335 336 343 343 326 311 284 236 232 235 231 255 300 335 358 9 27 36 26 21 23 14 1 360 7 16 23 30 29 25 24 25 27 35 42 43 40 37 35 40 52 58 58 61 65 67 69 73 75 78 86 91 87 83 87 95 101 106 109 112 116 119 120 121 119 117 112 107 102 99 96 93 96 103 109 116 122 125 124 131 139
259 296 324 334 335 341 352 357 346 329 299 206 198 206 203 193 116 64 61 58 55 56 50 44 44 43 35 30 33 37 39 43 46 42 34 30 35 42 47 44 40 44 53 61 70 76 74 72 73 76 78 80 80 84 93 99 99 97 96 96 96 99 105 112 118 122 124 123 119 114 110 104 99 94 91 94 103 110 111 113 118 117 117 125 131
243 277 311 324 329 349 14 10 4 22 30 38 116 136 135 134 122 101 86 81 72 67 68 65 62 60 54 48 47 48 46 47 53 55 53 51 52 54 54 49 48 65 83 90 93 94 90 85 84 86 87 87 89 92 94 98 100 100 98 94 91 90 92 100 110 114 114 111 107 105 102 97 90 88 91 96 102 104 102 105 113 113 109 109 110
236 264 299 316 318 336 42 36 16 24 30 61 130 138 136 130 118 102 88 87 88 85 80 77 73 70 64 55 52 52 51 54 60 60 58 59 62 66 71 79 86 91 96 100 103 104 103 100 95 91 88 88 91 95 99 100 100 97 94 89 85 82 83 93 106 112 111 106 101 97 94 92 93 101 105 104 102 98 99 106 113 113 106 98 91
229 251 283 304 312 329 22 55 49 47 55 84 115 123 126 124 116 103 85 81 85 87 85 82 78 69 63 60 60 57 56 60 65 64 60 59 63 67 74 83 89 88 89 97 104 106 106 103 97 91 87 85 86 90 97 101 101 97 89 81 74 73 78 89 101 108 111 108 102 95 91 89 93 102 106 104 99 97 99 102 105 106 109 106 90
224 237 262 285 312 345 69 97 63 53 62 88 108 117 120 116 111 104 89 80 85 85 79 78 76 66 60 62 62 57 54 56 61 61 58 55 58 63 67 72 74 71 70 80 93 99 98 95 91 88 89 89 88 87 89 93 95 90 79 68 65 72 82 90 95 102 108 108 104 103 107 108 106 110 111 107 101 101 100 98 94 91 92 97 91
222 226 241 254 268 265 168 144 108 79 85 96 99 107 114 109 106 106 100 91 90 88 82 81 77 68 62 61 57 53 52 53 57 59 56 51 48 49 52 57 59 59 62 70 79 84 85 85 85 86 88 90 90 86 81 74 72 68 56 49 57 74 89 99 102 107 112 109 105 107 117 116 110 111 114 112 104 96 90 88 92 91 85 81 83
218 219 226 230 239 260 182 149 139 130 127 120 109 113 122 121 117 112 109 106 100 93 88 90 88 80 71 61 53 52 55 57 58 61 60 54 45 39 37 39 42 48 58 69 74 74 73 75 76 74 70 67 68 70 67 60 54 54 53 52 59 71 89 103 109 114 119 115 106 108 120 118 105 97 100 102 96 91 91 93 96 91 79 74 79
213 216 219 217 218 222 199 181 185 184 163 150 146 141 134 134 139 138 134 135 132 115 96 91 93 93 84 67 63 68 69 67 66 66 65 61 53 44 38 38 41 46 53 60 65 68 72 76 75 72 68 64 63 64 66 68 70 70 70 70 75 84 93 100 107 117 123 117 105 104 114 117 108 101 107 108 97 89 98 104 98 86 77 74 73